Date String (YYYY-MM-DD hh:mm:ss) UTC,Instrument flags,Ambient pressure (hPa),Sample flow (lpm),Bypass flow (lpm),Sample temperature (°C),Ambient temperature (°C),ASC tube jacket temperature (°C),LED temperature (°C),Box temperature (°C),Sample RH (%),Span deviation,Mass concentration (μg/m³),Mass concentration (μg/m³),Mass concentration (μg/m³)
DateTimeUTC,F1_M11,P_M11,Q1_M11,Q2_M11,T1_M11,T2_M11,T3_M11,T4_M11,T5_M11,U1_M11,ZSPAN_M11,X0_M11,X2_M11,X1_M11
2021-12-13 17:00:00,,0825.5,5.01,0.00,24.1,23.4,00.0,32.9,26.0,07.7,0000.0,0012.47,0004.02,0003.00
2021-12-13 17:01:00,,0825.5,5.00,0.00,24.1,23.5,00.0,32.9,26.0,07.7,0000.0,0012.67,0003.99,0003.00
2021-12-13 17:02:00,,0825.4,5.00,0.00,24.1,23.5,00.0,33.0,26.0,07.7,0000.0,0013.09,0003.96,0002.99
2021-12-13 17:03:00,,0825.5,5.00,0.00,24.1,23.5,00.0,33.0,26.0,07.6,0000.0,0012.85,0003.90,0002.98
2021-12-13 17:04:00,,0825.4,4.99,0.00,24.2,23.5,00.0,33.0,26.1,07.6,0000.0,0013.13,0003.87,0002.95
2021-12-13 17:05:00,,0825.5,5.01,0.00,24.2,23.5,00.0,33.0,26.1,07.5,0000.0,0013.26,0003.85,0002.95
2021-12-13 17:06:00,,0825.5,5.01,0.00,24.2,23.6,00.0,33.0,26.1,07.6,0000.0,0014.27,0003.83,0002.96
2021-12-13 17:07:00,,0825.5,4.99,0.00,24.2,23.6,00.0,33.1,26.1,07.4,0000.0,0015.11,0003.82,0002.95
2021-12-13 17:08:00,,0825.5,4.99,0.00,24.2,23.6,00.0,33.1,26.2,07.4,0000.0,0015.07,0003.76,0002.94
2021-12-13 17:09:00,,0825.5,5.00,0.00,24.3,23.7,00.0,33.1,26.2,07.2,0000.0,0015.23,0003.71,0002.93
2021-12-13 17:10:00,,0825.5,5.00,0.00,24.3,23.7,00.0,33.1,26.2,07.2,0000.0,0014.53,0003.62,0002.90
2021-12-13 17:11:00,,0825.5,5.00,0.00,24.3,23.7,00.0,33.2,26.3,07.1,0000.0,0014.14,0003.57,0002.88
2021-12-13 17:12:00,,0825.5,5.00,0.00,24.3,23.7,00.0,33.2,26.3,06.9,0000.0,0013.95,0003.57,0002.87
2021-12-13 17:13:00,,0825.4,5.01,0.00,24.4,23.8,00.0,33.2,26.3,07.3,0000.0,0012.60,0003.55,0002.86
2021-12-13 17:14:00,,0825.4,5.01,0.00,24.4,23.8,00.0,33.2,26.3,07.1,0000.0,0011.96,0003.53,0002.83
2021-12-13 17:15:00,,0825.4,5.00,0.00,24.4,23.8,00.0,33.2,26.3,07.2,0000.0,0011.42,0003.48,0002.82
2021-12-13 17:16:00,,0825.4,5.00,0.00,24.4,23.8,00.0,33.3,26.4,07.2,0000.0,0011.29,0003.50,0002.80
2021-12-13 17:17:00,,0825.4,5.00,0.00,24.5,23.9,00.0,33.3,26.4,07.3,0000.0,0010.24,0003.51,0002.78
2021-12-13 17:18:00,,0825.4,5.00,0.00,24.5,23.9,00.0,33.3,26.4,07.3,0000.0,0008.80,0003.45,0002.76
2021-12-13 17:19:00,,0825.4,5.00,0.00,24.5,23.9,00.0,33.3,26.5,07.2,0000.0,0008.92,0003.46,0002.75
2021-12-13 17:20:00,,0825.3,4.99,0.00,24.6,23.9,00.0,33.4,26.5,07.2,0000.0,0008.44,0003.47,0002.75
2021-12-13 17:21:00,,0825.4,5.02,0.00,24.6,24.0,00.0,33.4,26.5,07.2,0000.0,0008.87,0003.50,0002.76
2021-12-13 17:22:00,,0825.4,5.00,0.00,24.6,24.0,00.0,33.4,26.6,07.2,0000.0,0009.50,0003.52,0002.77
2021-12-13 17:23:00,,0825.4,5.01,0.00,24.7,24.0,00.0,33.4,26.6,07.1,0000.0,0010.26,0003.52,0002.77
2021-12-13 17:24:00,,0825.4,4.99,0.00,24.7,24.1,00.0,33.4,26.6,07.1,0000.0,0010.40,0003.55,0002.78
2021-12-13 17:25:00,,0825.4,5.00,0.00,24.7,24.1,00.0,33.5,26.6,07.0,0000.0,0010.63,0003.58,0002.78
2021-12-13 17:26:00,,0825.4,5.01,0.00,24.7,24.1,00.0,33.5,26.7,06.9,0000.0,0011.00,0003.58,0002.77
2021-12-13 17:27:00,,0825.4,5.00,0.00,24.8,24.1,00.0,33.5,26.7,06.9,0000.0,0011.09,0003.52,0002.73
2021-12-13 17:28:00,,0825.4,5.00,0.00,24.8,24.2,00.0,33.6,26.7,06.8,0000.0,0010.83,0003.47,0002.71
2021-12-13 17:29:00,,0825.4,5.00,0.00,24.8,24.2,00.0,33.6,26.8,06.8,0000.0,0011.19,0003.48,0002.69
2021-12-13 17:30:00,,0825.3,5.00,0.00,24.9,24.2,00.0,33.6,26.8,06.8,0000.0,0011.03,0003.52,0002.68
2021-12-13 17:31:00,,0825.3,5.00,0.00,24.9,24.3,00.0,33.6,26.8,06.8,0000.0,0011.30,0003.54,0002.68
2021-12-13 17:32:00,,0825.3,5.02,0.00,24.9,24.3,00.0,33.7,26.9,06.9,0000.0,0010.79,0003.52,0002.67
2021-12-13 17:33:00,,0825.3,5.00,0.00,25.0,24.3,00.0,33.7,26.9,06.9,0000.0,0010.38,0003.54,0002.65
2021-12-13 17:34:00,,0825.3,4.99,0.00,25.0,24.4,00.0,33.7,26.9,07.0,0000.0,0009.58,0003.56,0002.64
2021-12-13 17:35:00,,0825.3,5.01,0.00,25.0,24.4,00.0,33.7,26.9,06.9,0000.0,0009.52,0003.56,0002.61
2021-12-13 17:36:00,,0825.3,4.99,0.00,25.0,24.4,00.0,33.8,27.0,06.7,0000.0,0009.51,0003.56,0002.59
2021-12-13 17:37:00,,0825.2,5.01,0.00,25.1,24.4,00.0,33.8,27.0,06.5,0000.0,0009.79,0003.56,0002.57
2021-12-13 17:38:00,,0825.1,4.99,0.00,25.1,24.5,00.0,33.8,27.0,06.5,0000.0,0009.25,0003.54,0002.55
2021-12-13 17:39:00,,0825.0,5.00,0.00,25.1,24.5,00.0,33.8,27.0,06.5,0000.0,0009.21,0003.58,0002.54
2021-12-13 17:40:00,,0825.0,5.01,0.00,25.1,24.5,00.0,33.9,27.1,06.5,0000.0,0009.05,0003.57,0002.51
2021-12-13 17:41:00,,0825.0,4.98,0.00,25.2,24.5,00.0,33.9,27.1,06.5,0000.0,0008.32,0003.51,0002.49
2021-12-13 17:42:00,,0824.9,5.01,0.00,25.2,24.6,00.0,33.9,27.1,06.7,0000.0,0008.69,0003.48,0002.47
2021-12-13 17:43:00,,0824.9,4.99,0.00,25.2,24.6,00.0,34.0,27.2,07.1,0000.0,0009.15,0003.51,0002.49
2021-12-13 17:44:00,,0824.9,4.99,0.00,25.2,24.6,00.0,34.0,27.2,07.3,0000.0,0010.09,0003.54,0002.52
2021-12-13 17:45:00,,0825.0,5.02,0.00,25.3,24.6,00.0,34.0,27.2,07.3,0000.0,0010.57,0003.53,0002.58
2021-12-13 17:46:00,,0825.0,4.98,0.00,25.3,24.6,00.0,34.0,27.2,07.3,0000.0,0011.47,0003.57,0002.64
2021-12-13 17:47:00,,0825.0,5.01,0.00,25.3,24.7,00.0,34.1,27.2,07.3,0000.0,0011.65,0003.61,0002.69
2021-12-13 17:48:00,,0824.9,5.00,0.00,25.3,24.7,00.0,34.1,27.2,07.4,0000.0,0011.27,0003.65,0002.76
2021-12-13 17:49:00,,0824.9,4.99,0.00,25.3,24.7,00.0,34.1,27.3,07.3,0000.0,0011.76,0003.69,0002.83
2021-12-13 17:50:00,,0824.9,5.00,0.00,25.3,24.7,00.0,34.1,27.3,07.4,0000.0,0012.33,0003.72,0002.91
2021-12-13 17:51:00,,0824.9,4.99,0.00,25.4,24.7,00.0,34.2,27.3,07.4,0000.0,0012.72,0003.79,0003.00
2021-12-13 17:52:00,,0824.8,5.01,0.00,25.4,24.7,00.0,34.2,27.3,07.2,0000.0,0013.49,0003.86,0003.08
2021-12-13 17:53:00,,0824.8,4.99,0.00,25.4,24.7,00.0,34.2,27.3,07.2,0000.0,0013.24,0003.89,0003.13
2021-12-13 17:54:00,,0824.7,5.00,0.00,25.4,24.8,00.0,34.2,27.3,07.3,0000.0,0012.98,0003.92,0003.15
2021-12-13 17:55:00,,0824.7,5.01,0.00,25.5,24.8,00.0,34.3,27.4,07.2,0000.0,0012.71,0003.95,0003.17
2021-12-13 17:56:00,,0824.7,4.99,0.00,25.5,24.8,00.0,34.3,27.4,07.2,0000.0,0013.47,0003.97,0003.17
2021-12-13 17:57:00,,0824.7,5.01,0.00,25.5,24.8,00.0,34.3,27.4,07.3,0000.0,0012.60,0003.97,0003.16
2021-12-13 17:58:00,,0824.6,4.99,0.00,25.5,24.8,00.0,34.3,27.4,07.2,0000.0,0012.48,0003.96,0003.18
2021-12-13 17:59:00,,0824.6,5.00,0.00,25.5,24.9,00.0,34.4,27.4,07.1,0000.0,0012.29,0003.95,0003.18
